TimeEST,TemperatureF,Dew PointF,Humidity,Sea Level PressureIn,VisibilityMPH,Wind Direction,Wind SpeedMPH,Gust SpeedMPH,PrecipitationIn,Events,Conditions,WindDirDegrees,DateUTC
12:52 AM,30.0,17.1,59,30.37,10.0,East,9.2,-,N/A,,Overcast,80,2013-12-01 05:52:00
1:15 AM,30.2,19.4,64,30.33,10.0,East,8.1,-,N/A,,Overcast,80,2013-12-01 06:15:00
1:34 AM,30.2,19.4,64,30.32,10.0,Variable,4.6,-,N/A,,Overcast,0,2013-12-01 06:34:00
1:52 AM,30.0,19.9,66,30.35,10.0,East,5.8,-,N/A,,Overcast,80,2013-12-01 06:52:00
2:52 AM,30.0,23.0,75,30.32,10.0,East,8.1,-,N/A,,Mostly Cloudy,80,2013-12-01 07:52:00
3:12 AM,30.2,23.0,75,30.28,10.0,East,8.1,-,N/A,,Overcast,100,2013-12-01 08:12:00
3:52 AM,30.9,23.0,72,30.29,10.0,East,9.2,-,N/A,,Overcast,90,2013-12-01 08:52:00
4:52 AM,30.9,24.1,76,30.27,10.0,East,8.1,-,N/A,,Overcast,100,2013-12-01 09:52:00
5:28 AM,30.2,24.8,80,30.23,10.0,ESE,5.8,-,N/A,,Partly Cloudy,110,2013-12-01 10:28:00
5:52 AM,30.9,24.1,76,30.25,10.0,ESE,8.1,-,N/A,,Clear,120,2013-12-01 10:52:00
6:52 AM,32.0,26.1,79,30.24,10.0,Variable,4.6,-,N/A,,Clear,0,2013-12-01 11:52:00
7:52 AM,32.0,27.0,82,30.24,10.0,East,6.9,-,N/A,,Clear,90,2013-12-01 12:52:00
8:52 AM,34.0,28.0,79,30.23,10.0,ESE,6.9,-,N/A,,Clear,120,2013-12-01 13:52:00
9:52 AM,36.0,28.0,73,30.22,10.0,East,9.2,-,N/A,,Clear,100,2013-12-01 14:52:00
10:52 AM,37.9,28.0,68,30.18,10.0,ESE,6.9,-,N/A,,Clear,110,2013-12-01 15:52:00
11:52 AM,39.0,27.0,62,30.14,10.0,East,5.8,-,N/A,,Partly Cloudy,80,2013-12-01 16:52:00
12:52 PM,41.0,26.1,55,30.12,10.0,ENE,4.6,-,N/A,,Overcast,70,2013-12-01 17:52:00
1:52 PM,41.0,26.1,55,30.09,10.0,Calm,Calm,-,N/A,,Overcast,0,2013-12-01 18:52:00
2:52 PM,39.9,27.0,60,30.09,10.0,Calm,Calm,-,N/A,,Overcast,0,2013-12-01 19:52:00
3:52 PM,39.0,28.0,65,30.08,10.0,Calm,Calm,-,N/A,,Overcast,0,2013-12-01 20:52:00
4:52 PM,36.0,27.0,70,30.08,10.0,Calm,Calm,-,N/A,,Overcast,0,2013-12-01 21:52:00
5:52 PM,34.0,27.0,75,30.08,10.0,Calm,Calm,-,N/A,,Overcast,0,2013-12-01 22:52:00
6:52 PM,33.1,27.0,78,30.08,10.0,Calm,Calm,-,N/A,,Overcast,0,2013-12-01 23:52:00
7:52 PM,32.0,26.1,79,30.07,10.0,Calm,Calm,-,N/A,,Mostly Cloudy,0,2013-12-02 00:52:00
8:52 PM,30.9,26.1,82,30.06,10.0,Calm,Calm,-,N/A,,Clear,0,2013-12-02 01:52:00
9:52 PM,30.0,26.1,85,30.05,10.0,Calm,Calm,-,N/A,,Clear,0,2013-12-02 02:52:00
10:52 PM,30.0,26.1,85,30.04,10.0,Calm,Calm,-,N/A,,Clear,0,2013-12-02 03:52:00
11:52 PM,30.0,26.1,85,30.03,10.0,Calm,Calm,-,N/A,,Clear,0,2013-12-02 04:52:00